Red Wing, WI

2:39 PM CDT on March 27, 2017 (GMT -0500)
Red Wing Municipal

Weather History for KRGK - January, 2013

Change the Weather History Date:

Saturday, January 12, 2013

  Actual Average Record
Temperature  
Mean Temperature 25 °F -  
Max Temperature 42 °F 21 °F 42 °F (2006)
Min Temperature 8 °F 6 °F -14 °F (1997)
Degree Days  
Heating Degree Days 40    
Moisture  
Dew Point 13 °F    
Average Humidity 72    
Maximum Humidity 93    
Minimum Humidity 58    
Precipitation  
Precipitation 0.00 in - - ()
Sea Level Pressure  
Sea Level Pressure 29.83 in    
Wind  
Wind Speed 14 mph (West)    
Max Wind Speed 24 mph    
Max Gust Speed 37 mph    
Visibility 9 miles    
Events Snow    
Averages and records for this station are not official NWS values.
T = Trace of Precipitation, MM = Missing Value Source: NWS Daily Summary

Daily Weather History Graph

Daily Weather History Graph

Search for Another Location

Airport or City:

Trip Planner

Search our weather history database for the weather conditions in past years. The results will help you decide how hot, cold, wet, or windy it might be!

Date:

Astronomy

Jan. 12, 2013 Rise Set
Actual Time 7:44 AM CST 4:52 PM CST
Civil Twilight 7:11 AM CST 5:25 PM CST
Nautical Twilight 6:35 AM CST 6:01 PM CST
Astronomical Twilight 6:00 AM CST 6:36 PM CST
Moon 7:59 AM CST (1/12) 6:27 PM CST (1/12)
Length of Visible Light 10h 13m
Length of Day
9h 08m
New Moon, 1% of the Moon is Illuminated
Jan 12
New Moon
Jan 18
First Quarter
Jan 26
Full
Feb 3
Last Quarter
Feb 10
New

Hourly Weather History & Observations

Time (CST) Temp. Windchill Dew Point Humidity Pressure Visibility Wind Dir Wind Speed Gust Speed Precip Events Conditions
12:15 AM 42.8 °F 37.5 °F 39.2 °F 87% 29.40 in 7.0 mi SSW 9.2 mph - N/A   Overcast
12:35 AM 42.8 °F 38.0 °F 39.2 °F 87% 29.40 in 7.0 mi SW 8.1 mph - N/A   Overcast
12:55 AM 42.8 °F 36.2 °F 39.2 °F 87% 29.41 in 7.0 mi WSW 12.7 mph 18.4 mph N/A   Overcast
1:15 AM 42.8 °F 36.6 °F 39.2 °F 87% 29.43 in 7.0 mi SW 11.5 mph - N/A   Overcast
1:35 AM 42.8 °F 37.0 °F 39.2 °F 87% 29.44 in 5.0 mi SW 10.4 mph - N/A   Overcast
1:55 AM 41.0 °F 34.7 °F 37.4 °F 87% 29.44 in 7.0 mi SW 10.4 mph - N/A   Overcast
2:15 AM 39.2 °F 32.0 °F 37.4 °F 93% 29.45 in 7.0 mi WSW 11.5 mph - N/A   Mostly Cloudy
2:35 AM 39.2 °F 30.2 °F 35.6 °F 87% 29.47 in 10.0 mi West 17.3 mph 26.5 mph N/A   Overcast
2:55 AM 37.4 °F 27.5 °F 33.8 °F 87% 29.49 in 10.0 mi West 18.4 mph 27.6 mph N/A   Overcast
3:35 AM 35.6 °F 25.2 °F 30.2 °F 81% 29.52 in 10.0 mi West 18.4 mph 23.0 mph N/A   Overcast
3:55 AM 33.8 °F 21.6 °F 30.2 °F 87% 29.53 in 10.0 mi West 23.0 mph 27.6 mph N/A   Overcast
4:15 AM 32.0 °F 20.5 °F 28.4 °F 87% 29.55 in 10.0 mi West 18.4 mph 27.6 mph N/A   Overcast
4:35 AM 30.2 °F 18.5 °F 26.6 °F 86% 29.57 in 10.0 mi West 17.3 mph 27.6 mph N/A   Overcast
4:55 AM 28.4 °F 16.2 °F 23.0 °F 80% 29.59 in 10.0 mi West 17.3 mph 29.9 mph N/A   Overcast
5:15 AM 28.4 °F 14.7 °F 23.0 °F 80% 29.62 in 10.0 mi West 21.9 mph 28.8 mph N/A   Overcast
5:35 AM 26.6 °F 14.3 °F 21.2 °F 80% 29.64 in 10.0 mi West 16.1 mph 31.1 mph N/A   Overcast
5:55 AM 24.8 °F 10.7 °F 19.4 °F 80% 29.66 in 10.0 mi West 19.6 mph 31.1 mph N/A   Overcast
6:15 AM 24.8 °F 9.3 °F 17.6 °F 74% 29.68 in 10.0 mi West 24.2 mph 36.8 mph N/A   Overcast
6:35 AM 24.8 °F 11.9 °F 17.6 °F 74% 29.70 in 10.0 mi West 16.1 mph 33.4 mph N/A   Overcast
6:55 AM 24.8 °F 9.3 °F 15.8 °F 69% 29.72 in 10.0 mi West 24.2 mph 29.9 mph N/A   Overcast
7:15 AM 23.0 °F 8.0 °F 14.0 °F 68% 29.74 in 10.0 mi West 20.7 mph 27.6 mph N/A Snow Light Snow
7:35 AM 21.2 °F 6.8 °F 14.0 °F 74% 29.76 in 10.0 mi West 17.3 mph 26.5 mph N/A Snow Light Snow
7:55 AM 21.2 °F 6.4 °F 14.0 °F 74% 29.77 in 7.0 mi West 18.4 mph 23.0 mph N/A Snow Light Snow
8:15 AM 21.2 °F 5.6 °F 12.2 °F 68% 29.79 in 10.0 mi West 20.7 mph 26.5 mph N/A Snow Light Snow
8:35 AM 19.4 °F 6.6 °F 12.2 °F 74% 29.81 in 10.0 mi West 12.7 mph 25.3 mph N/A Snow Light Snow
8:55 AM 19.4 °F 3.6 °F 10.4 °F 68% 29.82 in 10.0 mi West 19.6 mph 27.6 mph N/A Snow Light Snow
9:15 AM 19.4 °F 4.5 °F 10.4 °F 68% 29.84 in 10.0 mi West 17.3 mph 23.0 mph N/A   Overcast
9:35 AM 19.4 °F 3.6 °F 10.4 °F 68% 29.84 in 10.0 mi West 19.6 mph 27.6 mph N/A   Overcast
9:55 AM 19.4 °F 5.5 °F 8.6 °F 63% 29.86 in 10.0 mi West 15.0 mph 23.0 mph N/A   Overcast
10:15 AM 19.4 °F 4.5 °F 8.6 °F 63% 29.86 in 10.0 mi West 17.3 mph 25.3 mph N/A   Overcast
10:35 AM 19.4 °F 3.6 °F 8.6 °F 63% 29.89 in 10.0 mi West 19.6 mph 26.5 mph N/A   Overcast
10:55 AM 19.4 °F 4.1 °F 8.6 °F 63% 29.89 in 10.0 mi West 18.4 mph 24.2 mph N/A   Mostly Cloudy
11:15 AM 17.6 °F 1.7 °F 8.6 °F 68% 29.89 in 10.0 mi West 18.4 mph 25.3 mph N/A   Mostly Cloudy
11:35 AM 17.6 °F 3.7 °F 6.8 °F 63% 29.89 in 10.0 mi West 13.8 mph - N/A   Overcast
11:56 AM 17.6 °F 3.7 °F 8.6 °F 68% 29.90 in 10.0 mi West 13.8 mph 20.7 mph N/A   Overcast
12:15 PM 17.6 °F 3.7 °F 6.8 °F 63% 29.91 in 10.0 mi West 13.8 mph 26.5 mph N/A   Overcast
12:35 PM 17.6 °F 1.3 °F 6.8 °F 63% 29.90 in 10.0 mi West 19.6 mph 24.2 mph N/A   Overcast
12:55 PM 17.6 °F 2.7 °F 6.8 °F 63% 29.92 in 7.0 mi West 16.1 mph 24.2 mph N/A   Overcast
1:15 PM 17.6 °F 1.3 °F 6.8 °F 63% 29.94 in 10.0 mi West 19.6 mph - N/A   Overcast
1:35 PM 17.6 °F 1.7 °F 6.8 °F 63% 29.94 in 10.0 mi West 18.4 mph - N/A   Overcast
1:55 PM 17.6 °F 2.7 °F 6.8 °F 63% 29.93 in 5.0 mi West 16.1 mph - N/A Snow Light Snow
2:16 PM 15.8 °F 0.9 °F 6.8 °F 68% 29.95 in 7.0 mi West 15.0 mph 20.7 mph N/A   Overcast
2:35 PM 15.8 °F 0.3 °F 6.8 °F 68% 29.96 in 10.0 mi West 16.1 mph 20.7 mph N/A   Overcast
2:55 PM 15.8 °F 2.7 °F 6.8 °F 68% 29.96 in 7.0 mi WNW 11.5 mph 21.9 mph N/A   Overcast
3:15 PM 15.8 °F 1.4 °F 5.0 °F 62% 29.97 in 10.0 mi West 13.8 mph 19.6 mph N/A   Overcast
3:35 PM 15.8 °F 3.4 °F 6.8 °F 68% 29.97 in 10.0 mi West 10.4 mph - N/A   Overcast
3:55 PM 15.8 °F 1.4 °F 6.8 °F 68% 29.96 in 10.0 mi WNW 13.8 mph 18.4 mph N/A   Overcast
4:16 PM 15.8 °F 1.4 °F 3.2 °F 58% 29.97 in 10.0 mi West 13.8 mph - N/A   Overcast
4:35 PM 14.0 °F 2.9 °F 5.0 °F 67% 29.98 in 10.0 mi West 8.1 mph - N/A   Overcast
4:55 PM 14.0 °F -0.8 °F 3.2 °F 62% 29.99 in 10.0 mi WNW 13.8 mph 19.6 mph N/A   Overcast
5:15 PM 12.2 °F -1.8 °F 3.2 °F 67% 30.01 in 10.0 mi West 11.5 mph - N/A   Mostly Cloudy
5:35 PM 12.2 °F 1.7 °F 3.2 °F 67% 30.02 in 10.0 mi West 6.9 mph 10.4 mph N/A   Mostly Cloudy
5:55 PM 12.2 °F -1.0 °F 3.2 °F 67% 30.01 in 10.0 mi WNW 10.4 mph - N/A   Overcast
6:15 PM 12.2 °F -1.8 °F 3.2 °F 67% 30.02 in 10.0 mi WNW 11.5 mph - N/A   Mostly Cloudy
6:35 PM 10.4 °F -4.1 °F 1.4 °F 67% 30.02 in 10.0 mi WNW 11.5 mph - N/A   Scattered Clouds
7:15 PM 10.4 °F -3.3 °F 1.4 °F 67% 30.03 in 10.0 mi West 10.4 mph - N/A   Scattered Clouds
7:55 PM 10.4 °F -4.1 °F 1.4 °F 67% 30.04 in 10.0 mi West 11.5 mph - N/A   Scattered Clouds
8:15 PM 10.4 °F -4.1 °F 1.4 °F 67% 30.03 in 10.0 mi WNW 11.5 mph - N/A   Scattered Clouds
8:35 PM 10.4 °F -4.8 °F 1.4 °F 67% 30.06 in 10.0 mi West 12.7 mph - N/A   Clear
8:55 PM 10.4 °F -3.3 °F 1.4 °F 67% 30.07 in 10.0 mi West 10.4 mph - N/A   Clear
9:15 PM 10.4 °F -2.4 °F 1.4 °F 67% 30.06 in 10.0 mi West 9.2 mph - N/A   Scattered Clouds
9:35 PM 10.4 °F -3.3 °F 1.4 °F 67% 30.06 in 10.0 mi West 10.4 mph - N/A   Mostly Cloudy
9:55 PM 10.4 °F -2.4 °F 1.4 °F 67% 30.03 in 10.0 mi NW 9.2 mph - N/A   Mostly Cloudy
10:35 PM 8.6 °F -2.6 °F 1.4 °F 73% 30.06 in 10.0 mi WNW 6.9 mph - N/A   Scattered Clouds
10:54 PM 8.6 °F -1.3 °F -0.4 °F 67% 30.04 in 10.0 mi WNW 5.8 mph - N/A   Clear
11:15 PM 8.6 °F -2.6 °F 1.4 °F 73% 30.06 in 10.0 mi WNW 6.9 mph - N/A   Scattered Clouds
11:35 PM 8.6 °F -2.6 °F 1.4 °F 73% 30.04 in 10.0 mi WNW 6.9 mph - N/A   Clear
11:55 PM 8.6 °F -2.6 °F 1.4 °F 73% 30.03 in 10.0 mi WNW 6.9 mph - N/A   Clear